📊 Raw Sensor Data
Showing records 35601 to 35625 of 84,880 total
| ID | Distance (ft) | Battery V | Battery A | Int Temp (°F) | Int Humid (%) | Ext Temp (°F) | Solar V | RSSI | SNR | Time Stamp |
|---|---|---|---|---|---|---|---|---|---|---|
| 49292 | 15.7 | 3.89 | 0 | 100 | 51 | 91 | 5.10 | -70 | 6 | 08/15/2025 06:15 PM |
| 49291 | 15.8 | 3.89 | 0 | 103 | 49 | 94 | 5.10 | -71 | 8 | 08/15/2025 05:45 PM |
| 49290 | 15.8 | 3.90 | 0 | 103 | 49 | 93 | 5.10 | -69 | 8 | 08/15/2025 05:30 PM |
| 49289 | 15.8 | 3.90 | 0 | 104 | 48 | 95 | 5.10 | -72 | 6 | 08/15/2025 05:15 PM |
| 49288 | 15.8 | 3.89 | 0 | 105 | 47 | 95 | 5.10 | -70 | 8 | 08/15/2025 05:00 PM |
| 49287 | 15.8 | 3.89 | 0 | 106 | 47 | 96 | 5.10 | -70 | 8 | 08/15/2025 04:45 PM |
| 49286 | 15.7 | 3.89 | 0 | 106 | 47 | 95 | 5.10 | -71 | 7 | 08/15/2025 04:30 PM |
| 49285 | 15.8 | 3.89 | 0 | 107 | 46 | 95 | 5.10 | -71 | 8 | 08/15/2025 04:15 PM |
| 49284 | 15.8 | 3.90 | 0 | 107 | 45 | 97 | 5.10 | -70 | 7 | 08/15/2025 04:00 PM |
| 49283 | 15.8 | 3.89 | 0 | 108 | 45 | 96 | 5.10 | -70 | 8 | 08/15/2025 03:45 PM |
| 49282 | 15.8 | 3.89 | 0 | 109 | 44 | 98 | 5.10 | -71 | 8 | 08/15/2025 03:30 PM |
| 49281 | 15.8 | 3.89 | 0 | 109 | 43 | 97 | 5.10 | -70 | 8 | 08/15/2025 03:15 PM |
| 49280 | 15.8 | 3.89 | 0 | 107 | 43 | 96 | 5.20 | -70 | 8 | 08/15/2025 03:00 PM |
| 49279 | 15.8 | 3.89 | 0 | 106 | 42 | 96 | 5.20 | -69 | 8 | 08/15/2025 02:45 PM |
| 49278 | 15.7 | 3.89 | 0 | 105 | 42 | 96 | 5.10 | -71 | 7 | 08/15/2025 02:30 PM |
| 49277 | 15.8 | 3.89 | 0 | 104 | 42 | 92 | 5.20 | -71 | 8 | 08/15/2025 02:15 PM |
| 49276 | 15.8 | 3.89 | 0 | 103 | 42 | 92 | 5.20 | -71 | 8 | 08/15/2025 02:00 PM |
| 49275 | 15.7 | 3.89 | 0 | 103 | 41 | 94 | 5.10 | -70 | 8 | 08/15/2025 01:45 PM |
| 49274 | 15.7 | 3.89 | 0 | 101 | 41 | 94 | 5.10 | -70 | 8 | 08/15/2025 01:30 PM |
| 49273 | 15.7 | 4.10 | 0 | 100 | 42 | 93 | 5.10 | -70 | 8 | 08/15/2025 01:15 PM |
| 49272 | 15.7 | 3.89 | 0 | 98 | 42 | 91 | 5.10 | -71 | 7 | 08/15/2025 01:00 PM |
| 49271 | 15.7 | 3.89 | 0 | 96 | 42 | 90 | 5.10 | -70 | 8 | 08/15/2025 12:45 PM |
| 49270 | 15.7 | 3.89 | 0 | 94 | 42 | 89 | 5.20 | -69 | 8 | 08/15/2025 12:30 PM |
| 49269 | 15.8 | 3.89 | 0 | 93 | 42 | 89 | 5.10 | -70 | 8 | 08/15/2025 12:15 PM |
| 49268 | 15.7 | 4.03 | 0 | 91 | 43 | 88 | 5.10 | -70 | 8 | 08/15/2025 12:00 PM |